Radiation Dose measured at exhaust stack monitor of Miscellaneous Solid Waste Incinerator Building/Incinerator raregas monitor
Date,Time,Incinerator Gas Monitor(cps),Wind Direction,Wind Velocity(m/s)
2021/04/14,00:00,1.5,south,6.4
2021/04/14,00:10,1.4,south,7.1
2021/04/14,00:20,1.5,south,10.2
2021/04/14,00:30,1.5,south,10.6
2021/04/14,00:40,1.5,south-southwest,9.1
2021/04/14,00:50,1.5,south-southwest,10.5
2021/04/14,01:00,1.5,south,8.8
2021/04/14,01:10,1.4,south,7.5
2021/04/14,01:20,1.5,south-southwest,5.9
2021/04/14,01:30,1.6,south,7.0
2021/04/14,01:40,1.5,south,6.0
2021/04/14,01:50,1.4,south-southwest,5.3
2021/04/14,02:00,1.4,south,4.8
2021/04/14,02:10,1.5,south,4.2
2021/04/14,02:20,1.5,south,4.1
2021/04/14,02:30,1.5,south-southeast,7.2
2021/04/14,02:40,1.5,south-southeast,8.4
2021/04/14,02:50,1.4,south,7.1
2021/04/14,03:00,1.5,south-southwest,7.0
2021/04/14,03:10,1.4,south,7.1
2021/04/14,03:20,1.4,south,6.0
2021/04/14,03:30,1.5,south,5.7
2021/04/14,03:40,1.4,south,6.0
2021/04/14,03:50,1.5,south,5.9
2021/04/14,04:00,1.5,south,5.2
2021/04/14,04:10,1.4,south,5.4
2021/04/14,04:20,1.4,south,4.7
2021/04/14,04:30,1.4,south-southwest,4.9
2021/04/14,04:40,1.5,south-southwest,5.0
2021/04/14,04:50,1.5,south-southwest,4.9
2021/04/14,05:00,1.5,south-southwest,4.9
2021/04/14,05:10,1.4,south-southwest,4.4
2021/04/14,05:20,1.4,southwest,4.2
2021/04/14,05:30,1.5,southwest,4.0
2021/04/14,05:40,1.6,southwest,4.3
2021/04/14,05:50,1.5,west-southwest,3.7
2021/04/14,06:00,1.5,west,3.3
2021/04/14,06:10,1.5,west,2.9
2021/04/14,06:20,1.5,west-northwest,3.1
2021/04/14,06:30,1.5,west-southwest,1.9
2021/04/14,06:40,1.5,west-northwest,1.7
2021/04/14,06:50,1.5,northwest,3.3
2021/04/14,07:00,1.5,west,0.9
2021/04/14,07:10,1.6,northeast,1.2
2021/04/14,07:20,1.5,-,CALM
2021/04/14,07:30,1.5,west-northwest,2.0
2021/04/14,07:40,1.4,west,3.0
2021/04/14,07:50,1.4,west-northwest,3.4
2021/04/14,08:00,1.5,northwest,4.0
2021/04/14,08:10,1.5,northwest,4.6
2021/04/14,08:20,1.5,west-northwest,3.9
2021/04/14,08:30,1.6,north-northwest,4.8
2021/04/14,08:40,1.5,north,7.2
2021/04/14,08:50,1.5,north,7.8
2021/04/14,09:00,1.5,north,9.2
2021/04/14,09:10,1.5,north,7.8
2021/04/14,09:20,1.4,north,7.3
2021/04/14,09:30,1.5,north,6.1
2021/04/14,09:40,1.5,north,5.7
2021/04/14,09:50,1.6,north-northwest,5.3
2021/04/14,10:00,1.6,north,5.4
2021/04/14,10:10,1.5,north-northeast,3.8
2021/04/14,10:20,1.5,north-northeast,6.3
2021/04/14,10:30,1.5,north-northeast,7.6
2021/04/14,10:40,1.5,north,6.6
2021/04/14,10:50,1.6,north,7.2
2021/04/14,11:00,1.5,north,7.2
2021/04/14,11:10,1.5,north,7.4
2021/04/14,11:20,1.5,north-northeast,6.8
2021/04/14,11:30,1.6,north-northeast,6.5
2021/04/14,11:40,1.5,north,6.4
2021/04/14,11:50,1.5,north-northeast,6.3
2021/04/14,12:00,1.5,north-northeast,7.3
2021/04/14,12:10,1.5,north,8.2
2021/04/14,12:20,1.5,north,7.5
2021/04/14,12:30,1.5,north-northeast,7.4
2021/04/14,12:40,1.5,north-northeast,8.6
2021/04/14,12:50,1.4,north-northeast,8.7
2021/04/14,13:00,1.6,north-northeast,8.5
2021/04/14,13:10,1.5,north-northeast,9.0
2021/04/14,13:20,1.6,north-northeast,9.2
2021/04/14,13:30,1.4,northeast,8.0
2021/04/14,13:40,1.5,-,CALM
2021/04/14,13:50,1.5,north,9.2
2021/04/14,14:00,1.5,north,9.8
2021/04/14,14:10,1.5,north,10.2
2021/04/14,14:20,1.5,north,7.3
2021/04/14,14:30,1.5,north,8.0
2021/04/14,14:40,1.4,north,9.8
2021/04/14,14:50,1.5,north,10.7
2021/04/14,15:00,1.5,north-northeast,8.9
2021/04/14,15:10,1.5,north-northeast,9.3
2021/04/14,15:20,1.5,north-northeast,9.5
2021/04/14,15:30,1.5,north,7.6
2021/04/14,15:40,1.5,north,7.2
2021/04/14,15:50,1.4,north,7.1
2021/04/14,16:00,1.5,north,6.8
2021/04/14,16:10,1.4,north,8.2
2021/04/14,16:20,1.5,north,11.6
2021/04/14,16:30,1.4,north,10.5
2021/04/14,16:40,1.5,north,11.6
2021/04/14,16:50,1.5,north,9.5
2021/04/14,17:00,1.6,north,9.3
2021/04/14,17:10,1.6,north,7.3
2021/04/14,17:20,1.5,north,7.9
2021/04/14,17:30,1.5,north,8.1
2021/04/14,17:40,1.4,north,9.2
2021/04/14,17:50,1.5,north,8.2
2021/04/14,18:00,1.5,north,9.6
2021/04/14,18:10,1.6,north,8.5
2021/04/14,18:20,1.5,north-northwest,7.9
2021/04/14,18:30,1.4,north-northwest,9.6
2021/04/14,18:40,1.5,north-northwest,7.9
2021/04/14,18:50,1.4,north,5.9
2021/04/14,19:00,1.6,north-northwest,8.0
2021/04/14,19:10,1.4,north-northwest,8.3
2021/04/14,19:20,1.5,north-northwest,7.8
2021/04/14,19:30,1.5,north-northwest,9.1
2021/04/14,19:40,1.4,north-northwest,9.8
2021/04/14,19:50,1.4,north-northwest,11.0
2021/04/14,20:00,1.4,north,8.9
2021/04/14,20:10,1.5,north-northwest,8.4
2021/04/14,20:20,1.5,north-northwest,9.6
2021/04/14,20:30,1.4,north-northwest,7.8
2021/04/14,20:40,1.4,north-northwest,8.3
2021/04/14,20:50,1.5,north-northwest,8.2
2021/04/14,21:00,1.5,north-northwest,8.0
2021/04/14,21:10,1.5,north-northwest,6.9
2021/04/14,21:20,1.4,north-northwest,7.0
2021/04/14,21:30,1.5,north-northwest,6.3
2021/04/14,21:40,1.5,north-northwest,6.7
2021/04/14,21:50,1.5,north-northwest,8.1
2021/04/14,22:00,1.6,north-northwest,8.5
2021/04/14,22:10,1.5,north-northwest,6.3
2021/04/14,22:20,1.4,north-northwest,7.9
2021/04/14,22:30,1.5,north-northwest,7.2
2021/04/14,22:40,1.5,north-northwest,7.7
2021/04/14,22:50,1.6,north-northwest,7.8
2021/04/14,23:00,1.4,north-northwest,6.7
2021/04/14,23:10,1.5,north-northwest,6.8
2021/04/14,23:20,1.5,north-northwest,6.9
2021/04/14,23:30,1.5,north-northwest,8.9
2021/04/14,23:40,1.5,north-northwest,7.0
2021/04/14,23:50,1.3,north-northwest,6.6
